Simultaneous Nadir Overpasses (SNOs) Predictions

Prediction of SNOs between GOES-17 and NOAA-19 Satellite Orbit:

Table of predicted SNOs for the next 14.0 days since TLE Epoch: 1/13/2024
Index Date Time (GOES-17) GOES-17 Lat,Lon NOAA-19 Lat,Lon Distance(km) Time Diff (sec)
1 01/13/2024 03:49:43 -0.00,-104.66 0.47,-102.52 243.16 7
2 01/15/2024 16:08:12 0.00,-104.67 0.58,-107.21 289.45 80
3 01/16/2024 15:58:42 0.01,-104.68 -0.08,-104.25 48.81 80
4 01/17/2024 15:46:32 0.01,-104.68 -0.79,-101.29 387.06 80
5 01/19/2024 04:18:33 -0.00,-104.67 -0.97,-108.97 490.19 80
6 01/20/2024 04:06:22 -0.00,-104.67 -0.29,-106.01 151.98 80
7 01/21/2024 03:51:32 -0.01,-104.67 0.40,-103.05 186.29 80
8 01/23/2024 16:11:13 0.00,-104.69 0.72,-107.73 347.52 80
9 01/24/2024 15:59:03 0.01,-104.69 0.05,-104.76 9.44 80
10 01/25/2024 15:49:32 0.01,-104.69 -0.63,-101.80 329.41 80
